This is the latest recevied weather packets stored in our database for station/object VK6NP-1. If no packets are shown the sender has not sent any weather packets the latest 10 day(s).
| Time | Temp. | Humidity | Pressure | Rain* | Wind** | Luminosity | Snow |
|---|---|---|---|---|---|---|---|
| 1777793296 | 20.56° C | 55% | 1025.5 hPa | 0 mm | 0 m/s | - | - |
| 1777792998 | 20.56° C | 55% | 1025.5 hPa | 0 mm | 0 m/s | - | - |
| 1777792698 | 20.56° C | 55% | 1025.4 hPa | 0 mm | 0 m/s | - | - |
| 1777792395 | 20.56° C | 56% | 1025.4 hPa | 0 mm | 0 m/s | - | - |
| 1777792094 | 20° C | 56% | 1025.4 hPa | 0 mm | 0 m/s | - | - |
| 1777791796 | 20° C | 55% | 1025.4 hPa | 0 mm | 0 m/s | - | - |
| 1777791492 | 20° C | 56% | 1025.5 hPa | 0 mm | 0 m/s | - | - |
| 1777791192 | 20° C | 56% | 1025.5 hPa | 0 mm | 0 m/s | - | - |
| 1777790891 | 20° C | 54% | 1025.5 hPa | 0 mm | 0 m/s | - | - |
| 1777790590 | 20.56° C | 53% | 1025.5 hPa | 0 mm | 0 m/s | - | - |
| 1777790290 | 20.56° C | 56% | 1025.5 hPa | 0 mm | 0 m/s | - | - |
| 1777789990 | 20° C | 55% | 1025.5 hPa | 0 mm | 0 m/s | - | - |
| 1777789685 | 20° C | 55% | 1025.6 hPa | 0 mm | 0 m/s | - | - |
| 1777789086 | 20° C | 58% | 1025.7 hPa | 0 mm | 0 m/s | - | - |
| 1777788783 | 20° C | 58% | 1025.7 hPa | 0 mm | 0 m/s | - | - |
| 1777788482 | 20° C | 57% | 1025.8 hPa | 0 mm | 0 m/s | - | - |
| 1777788183 | 20° C | 59% | 1025.7 hPa | 0 mm | 0 m/s | - | - |
| 1777787880 | 19.44° C | 60% | 1025.8 hPa | 0 mm | 0 m/s | - | - |
| 1777787579 | 18.89° C | 61% | 1025.9 hPa | 0 mm | 0 m/s | - | - |
| 1777787280 | 18.89° C | 62% | 1026 hPa | 0 mm | 0 m/s | - | - |
| 1777786976 | 18.89° C | 62% | 1026 hPa | 0 mm | 0 m/s | - | - |
| 1777786677 | 18.33° C | 62% | 1025.9 hPa | 0 mm | 0 m/s | - | - |
| 1777786376 | 18.89° C | 62% | 1026 hPa | 0 mm | 0 m/s | - | - |
| 1777786072 | 18.89° C | 63% | 1026.1 hPa | 0 mm | 0 m/s | - | - |
| 1777785773 | 18.33° C | 63% | 1026.1 hPa | 0 mm | 0 m/s | - | - |
* Rain latest hour (hover to see other rain measurements)
** Current wind speed in m/s (hover to see current wind gust speed)